Time,TemperatureF,DewpointF,PressureIn,WindDirection,WindDirectionDegrees,WindSpeedMPH,WindSpeedGustMPH,Humidity,HourlyPrecipIn,Conditions,Clouds,dailyrainin,SoftwareType,DateUTC
2013-05-04 00:09:00,57.6,42.0,30.20,East,92,0.0,1.0,57,0.00,,,0.00,weatherlink.com 1.10,2013-05-04 04:09:00,
2013-05-04 00:24:00,56.6,42.0,30.21,East,92,0.0,1.0,58,0.00,,,0.00,weatherlink.com 1.10,2013-05-04 04:24:00,
2013-05-04 00:39:00,56.0,41.0,30.21,East,92,0.0,2.0,58,0.00,,,0.00,weatherlink.com 1.10,2013-05-04 04:39:00,
2013-05-04 00:54:00,55.5,41.0,30.21,East,92,0.0,1.0,59,0.00,,,0.00,weatherlink.com 1.10,2013-05-04 04:54:00,
2013-05-04 01:11:00,53.3,42.0,30.21,SE,128,0.0,4.0,66,0.00,,,0.00,weatherlink.com 1.10,2013-05-04 05:11:00,
2013-05-04 01:24:00,51.7,41.0,30.20,SE,128,0.0,0.0,68,0.00,,,0.00,weatherlink.com 1.10,2013-05-04 05:24:00,
2013-05-04 01:40:00,51.0,42.0,30.20,SE,128,0.0,0.0,70,0.00,,,0.00,weatherlink.com 1.10,2013-05-04 05:40:00,
2013-05-04 01:55:00,49.9,41.0,30.20,SE,128,0.0,0.0,72,0.00,,,0.00,weatherlink.com 1.10,2013-05-04 05:55:00,
2013-05-04 02:10:00,50.0,41.0,30.20,ESE,115,0.0,1.0,71,0.00,,,0.00,weatherlink.com 1.10,2013-05-04 06:10:00,
2013-05-04 02:25:00,51.7,41.0,30.21,ESE,115,0.0,1.0,67,0.00,,,0.00,weatherlink.com 1.10,2013-05-04 06:25:00,
2013-05-04 02:40:00,53.1,41.0,30.21,ESE,115,0.0,1.0,63,0.00,,,0.00,weatherlink.com 1.10,2013-05-04 06:40:00,
2013-05-04 02:55:00,52.5,40.0,30.20,ESE,115,0.0,2.0,63,0.00,,,0.00,weatherlink.com 1.10,2013-05-04 06:55:00,
2013-05-04 03:10:00,52.2,40.0,30.20,ESE,115,0.0,3.0,64,0.00,,,0.00,weatherlink.com 1.10,2013-05-04 07:10:00,
2013-05-04 03:25:00,52.2,41.0,30.20,ESE,115,2.0,3.0,65,0.00,,,0.00,weatherlink.com 1.10,2013-05-04 07:25:00,
2013-05-04 03:40:00,52.1,41.0,30.20,East,91,0.0,3.0,66,0.00,,,0.00,weatherlink.com 1.10,2013-05-04 07:40:00,
2013-05-04 03:55:00,50.6,40.0,30.20,East,97,0.0,2.0,68,0.00,,,0.00,weatherlink.com 1.10,2013-05-04 07:55:00,
2013-05-04 04:10:00,49.0,40.0,30.20,East,97,0.0,0.0,72,0.00,,,0.00,weatherlink.com 1.10,2013-05-04 08:10:00,
2013-05-04 04:25:00,47.6,40.0,30.20,East,97,0.0,0.0,75,0.00,,,0.00,weatherlink.com 1.10,2013-05-04 08:25:00,
2013-05-04 04:40:00,46.5,40.0,30.20,East,97,0.0,0.0,78,0.00,,,0.00,weatherlink.com 1.10,2013-05-04 08:40:00,
2013-05-04 04:55:00,45.7,40.0,30.20,East,97,0.0,1.0,79,0.00,,,0.00,weatherlink.com 1.10,2013-05-04 08:55:00,
2013-05-04 05:10:00,45.0,40.0,30.20,East,97,0.0,0.0,81,0.00,,,0.00,weatherlink.com 1.10,2013-05-04 09:10:00,
2013-05-04 05:25:00,44.4,39.0,30.21,East,97,0.0,0.0,82,0.00,,,0.00,weatherlink.com 1.10,2013-05-04 09:25:00,
2013-05-04 05:40:00,44.0,39.0,30.21,East,97,0.0,0.0,83,0.00,,,0.00,weatherlink.com 1.10,2013-05-04 09:40:00,
2013-05-04 05:55:00,43.4,39.0,30.21,East,97,0.0,1.0,83,0.00,,,0.00,weatherlink.com 1.10,2013-05-04 09:55:00,
2013-05-04 06:10:00,43.2,38.0,30.21,East,97,0.0,0.0,83,0.00,,,0.00,weatherlink.com 1.10,2013-05-04 10:10:00,
2013-05-04 06:25:00,42.9,38.0,30.21,East,97,0.0,0.0,84,0.00,,,0.00,weatherlink.com 1.10,2013-05-04 10:25:00,
2013-05-04 06:40:00,42.6,38.0,30.22,East,97,0.0,1.0,84,0.00,,,0.00,weatherlink.com 1.10,2013-05-04 10:40:00,
2013-05-04 06:55:00,42.7,38.0,30.22,East,97,0.0,0.0,84,0.00,,,0.00,weatherlink.com 1.10,2013-05-04 10:55:00,
2013-05-04 07:10:00,43.3,39.0,30.23,East,97,0.0,0.0,84,0.00,,,0.00,weatherlink.com 1.10,2013-05-04 11:10:00,
2013-05-04 07:25:00,45.3,41.0,30.23,East,85,0.0,2.0,84,0.00,,,0.00,weatherlink.com 1.10,2013-05-04 11:25:00,
2013-05-04 07:40:00,49.8,45.0,30.23,East,86,0.0,3.0,82,0.00,,,0.00,weatherlink.com 1.10,2013-05-04 11:40:00,
2013-05-04 08:10:00,59.5,45.0,30.23,SE,126,0.0,7.0,59,0.00,,,0.00,weatherlink.com 1.10,2013-05-04 12:10:00,
2013-05-04 08:25:00,60.9,44.0,30.23,East,96,6.0,6.0,55,0.00,,,0.00,weatherlink.com 1.10,2013-05-04 12:25:00,
2013-05-04 08:40:00,61.3,44.0,30.23,SE,130,1.0,8.0,54,0.00,,,0.00,weatherlink.com 1.10,2013-05-04 12:40:00,
2013-05-04 08:55:00,61.8,44.0,30.23,ESE,115,7.0,9.0,52,0.00,,,0.00,weatherlink.com 1.10,2013-05-04 12:55:00,
2013-05-04 09:10:00,62.3,44.0,30.23,ESE,103,1.0,8.0,52,0.00,,,0.00,weatherlink.com 1.10,2013-05-04 13:10:00,
2013-05-04 09:25:00,62.7,45.0,30.23,SE,132,4.0,7.0,52,0.00,,,0.00,weatherlink.com 1.10,2013-05-04 13:25:00,
2013-05-04 09:40:00,63.0,44.0,30.23,SE,142,4.0,7.0,51,0.00,,,0.00,weatherlink.com 1.10,2013-05-04 13:40:00,
2013-05-04 09:55:00,62.6,45.0,30.23,ESE,113,4.0,10.0,52,0.00,,,0.00,weatherlink.com 1.10,2013-05-04 13:55:00,
2013-05-04 10:10:00,62.6,45.0,30.22,ESE,119,1.0,10.0,52,0.00,,,0.00,weatherlink.com 1.10,2013-05-04 14:10:00,
2013-05-04 10:25:00,63.0,44.0,30.22,SE,136,4.0,10.0,51,0.00,,,0.00,weatherlink.com 1.10,2013-05-04 14:25:00,
2013-05-04 10:41:00,62.3,44.0,30.23,ESE,118,8.0,11.0,52,0.00,,,0.00,weatherlink.com 1.10,2013-05-04 14:41:00,
2013-05-04 10:56:00,62.8,45.0,30.23,ESE,118,5.0,10.0,52,0.00,,,0.00,weatherlink.com 1.10,2013-05-04 14:56:00,
2013-05-04 11:11:00,63.1,45.0,30.23,SE,139,11.0,12.0,52,0.00,,,0.00,weatherlink.com 1.10,2013-05-04 15:11:00,
2013-05-04 11:26:00,63.2,46.0,30.23,South,178,7.0,11.0,53,0.00,,,0.00,weatherlink.com 1.10,2013-05-04 15:26:00,
2013-05-04 11:41:00,63.0,45.0,30.23,SE,127,7.0,15.0,53,0.00,,,0.00,weatherlink.com 1.10,2013-05-04 15:41:00,
2013-05-04 11:56:00,63.9,46.0,30.23,SSE,152,5.0,11.0,53,0.00,,,0.00,weatherlink.com 1.10,2013-05-04 15:56:00,
2013-05-04 12:11:00,64.2,46.0,30.23,ESE,105,11.0,14.0,52,0.00,,,0.00,weatherlink.com 1.10,2013-05-04 16:11:00,
2013-05-04 12:26:00,64.3,46.0,30.23,SSE,157,4.0,10.0,52,0.00,,,0.00,weatherlink.com 1.10,2013-05-04 16:26:00,
2013-05-04 12:41:00,64.3,47.0,30.23,East,94,6.0,10.0,53,0.00,,,0.00,weatherlink.com 1.10,2013-05-04 16:41:00,
2013-05-04 12:56:00,64.9,47.0,30.23,SSE,151,3.0,13.0,52,0.00,,,0.00,weatherlink.com 1.10,2013-05-04 16:56:00,
2013-05-04 13:11:00,65.2,47.0,30.22,ESE,119,8.0,12.0,52,0.00,,,0.00,weatherlink.com 1.10,2013-05-04 17:11:00,
2013-05-04 13:26:00,65.0,47.0,30.23,SE,125,5.0,13.0,52,0.00,,,0.00,weatherlink.com 1.10,2013-05-04 17:26:00,
2013-05-04 13:41:00,65.3,47.0,30.23,SE,126,9.0,11.0,51,0.00,,,0.00,weatherlink.com 1.10,2013-05-04 17:41:00,
2013-05-04 13:56:00,65.8,49.0,30.23,SSE,165,6.0,13.0,54,0.00,,,0.00,weatherlink.com 1.10,2013-05-04 17:56:00,
2013-05-04 14:11:00,65.8,48.0,30.23,ESE,117,2.0,12.0,53,0.00,,,0.00,weatherlink.com 1.10,2013-05-04 18:11:00,
2013-05-04 14:26:00,65.8,47.0,30.23,SE,144,8.0,15.0,51,0.00,,,0.00,weatherlink.com 1.10,2013-05-04 18:26:00,
2013-05-04 14:41:00,64.7,47.0,30.22,SSE,148,0.0,9.0,53,0.00,,,0.00,weatherlink.com 1.10,2013-05-04 18:41:00,
2013-05-04 14:56:00,63.7,47.0,30.22,South,175,12.0,12.0,55,0.00,,,0.00,weatherlink.com 1.10,2013-05-04 18:56:00,
2013-05-04 15:11:00,61.9,46.0,30.22,SSE,149,8.0,11.0,56,0.00,,,0.00,weatherlink.com 1.10,2013-05-04 19:11:00,
2013-05-04 15:26:00,62.9,46.0,30.22,East,101,3.0,9.0,54,0.00,,,0.00,weatherlink.com 1.10,2013-05-04 19:26:00,
2013-05-04 15:41:00,63.8,47.0,30.22,South,180,4.0,12.0,55,0.00,,,0.00,weatherlink.com 1.10,2013-05-04 19:41:00,
2013-05-04 15:56:00,63.4,46.0,30.21,ESE,118,9.0,11.0,53,0.00,,,0.00,weatherlink.com 1.10,2013-05-04 19:56:00,
2013-05-04 16:11:00,63.5,46.0,30.21,South,179,5.0,11.0,54,0.00,,,0.00,weatherlink.com 1.10,2013-05-04 20:11:00,
2013-05-04 16:26:00,63.0,46.0,30.21,SE,142,4.0,11.0,55,0.00,,,0.00,weatherlink.com 1.10,2013-05-04 20:26:00,
2013-05-04 16:41:00,62.7,46.0,30.21,ESE,113,1.0,11.0,54,0.00,,,0.00,weatherlink.com 1.10,2013-05-04 20:41:00,
2013-05-04 16:56:00,62.4,46.0,30.21,ENE,74,1.0,12.0,55,0.00,,,0.00,weatherlink.com 1.10,2013-05-04 20:56:00,
2013-05-04 17:11:00,61.7,45.0,30.21,SSE,160,4.0,10.0,55,0.00,,,0.00,weatherlink.com 1.10,2013-05-04 21:11:00,
2013-05-04 17:26:00,61.2,45.0,30.21,East,98,6.0,11.0,55,0.00,,,0.00,weatherlink.com 1.10,2013-05-04 21:26:00,
2013-05-04 17:41:00,61.9,45.0,30.21,SE,128,2.0,11.0,55,0.00,,,0.00,weatherlink.com 1.10,2013-05-04 21:41:00,
2013-05-04 17:56:00,62.3,44.0,30.20,East,91,5.0,8.0,52,0.00,,,0.00,weatherlink.com 1.10,2013-05-04 21:56:00,
2013-05-04 18:11:00,62.5,43.0,30.20,SE,136,3.0,9.0,50,0.00,,,0.00,weatherlink.com 1.10,2013-05-04 22:11:00,
2013-05-04 18:26:00,62.0,42.0,30.20,ESE,117,7.0,8.0,49,0.00,,,0.00,weatherlink.com 1.10,2013-05-04 22:26:00,
2013-05-04 18:41:00,61.4,42.0,30.20,SE,144,2.0,8.0,50,0.00,,,0.00,weatherlink.com 1.10,2013-05-04 22:41:00,
2013-05-04 18:56:00,61.2,42.0,30.20,East,96,0.0,5.0,49,0.00,,,0.00,weatherlink.com 1.10,2013-05-04 22:56:00,
2013-05-04 19:11:00,61.2,43.0,30.20,East,96,0.0,5.0,51,0.00,,,0.00,weatherlink.com 1.10,2013-05-04 23:11:00,
2013-05-04 19:26:00,61.1,42.0,30.20,ESE,110,0.0,5.0,49,0.00,,,0.00,weatherlink.com 1.10,2013-05-04 23:26:00,
2013-05-04 19:41:00,61.1,42.0,30.20,East,86,0.0,5.0,50,0.00,,,0.00,weatherlink.com 1.10,2013-05-04 23:41:00,
2013-05-04 19:56:00,61.0,42.0,30.20,East,86,0.0,1.0,50,0.00,,,0.00,weatherlink.com 1.10,2013-05-04 23:56:00,
2013-05-04 20:11:00,60.5,42.0,30.20,East,86,0.0,2.0,50,0.00,,,0.00,weatherlink.com 1.10,2013-05-05 00:11:00,
2013-05-04 20:26:00,59.5,42.0,30.20,East,86,0.0,1.0,52,0.00,,,0.00,weatherlink.com 1.10,2013-05-05 00:26:00,
2013-05-04 20:41:00,58.2,42.0,30.20,East,86,0.0,2.0,55,0.00,,,0.00,weatherlink.com 1.10,2013-05-05 00:41:00,
2013-05-04 20:56:00,57.1,41.0,30.20,East,86,0.0,2.0,55,0.00,,,0.00,weatherlink.com 1.10,2013-05-05 00:56:00,
2013-05-04 21:11:00,56.1,42.0,30.21,East,86,0.0,1.0,59,0.00,,,0.00,weatherlink.com 1.10,2013-05-05 01:11:00,
2013-05-04 21:26:00,54.1,42.0,30.21,East,86,0.0,1.0,64,0.00,,,0.00,weatherlink.com 1.10,2013-05-05 01:26:00,
2013-05-04 21:41:00,52.7,42.0,30.21,East,86,0.0,0.0,67,0.00,,,0.00,weatherlink.com 1.10,2013-05-05 01:41:00,
2013-05-04 21:56:00,51.9,42.0,30.21,East,86,0.0,0.0,69,0.00,,,0.00,weatherlink.com 1.10,2013-05-05 01:56:00,
2013-05-04 22:11:00,50.8,42.0,30.21,East,86,0.0,1.0,71,0.00,,,0.00,weatherlink.com 1.10,2013-05-05 02:11:00,
2013-05-04 22:26:00,49.9,42.0,30.21,East,86,0.0,0.0,73,0.00,,,0.00,weatherlink.com 1.10,2013-05-05 02:26:00,
2013-05-04 22:41:00,49.2,41.0,30.21,East,86,0.0,0.0,74,0.00,,,0.00,weatherlink.com 1.10,2013-05-05 02:41:00,
2013-05-04 22:56:00,48.5,41.0,30.21,East,86,0.0,1.0,75,0.00,,,0.00,weatherlink.com 1.10,2013-05-05 02:56:00,
2013-05-04 23:11:00,47.9,41.0,30.21,East,86,0.0,1.0,76,0.00,,,0.00,weatherlink.com 1.10,2013-05-05 03:11:00,
2013-05-04 23:26:00,47.5,41.0,30.21,East,86,0.0,1.0,78,0.00,,,0.00,weatherlink.com 1.10,2013-05-05 03:26:00,
2013-05-04 23:41:00,46.9,41.0,30.21,East,86,0.0,0.0,79,0.00,,,0.00,weatherlink.com 1.10,2013-05-05 03:41:00,
2013-05-04 23:56:00,46.3,40.0,30.21,East,86,0.0,0.0,80,0.00,,,0.00,weatherlink.com 1.10,2013-05-05 03:56:00,